Wind_Speed
73 70 67 66 67 70 70 67 63 61 60 59 59 59 58 57 56 55 54 55 58 59 58 56 53 52 50 48 48 47 48 49 48 46 46 44 41 41 42 40 39 38 38 39 38 36 34 34 36 38 39 40 40 41 42 42 41 42 43 44 46 47 47 46 45 44 43 42 42 41 40 40 39 38 38 38 38 38 38 39 40 41 42 43 44 45
72 68 67 69 71 72 70 66 62 61 61 60 59 59 59 58 57 55 53 53 55 58 59 58 56 55 53 51 50 50 51 52 51 48 47 44 42 43 43 42 40 39 39 40 38 37 37 37 38 40 41 41 42 43 44 43 41 42 43 44 46 47 48 48 47 47 46 46 45 44 43 43 42 41 40 40 39 40 40 40 41 42 43 44 44 45
73 70 71 72 71 70 68 66 64 63 63 62 61 61 61 61 59 58 56 54 53 55 57 58 58 58 56 54 53 53 54 55 53 52 50 46 44 44 44 43 42 40 40 40 40 40 40 41 41 42 42 43 45 46 46 45 43 43 43 45 47 49 49 49 49 49 49 49 48 47 47 46 45 44 42 41 41 42 42 42 43 44 44 45 46 46
76 76 77 74 72 70 69 68 67 67 67 67 67 67 66 65 63 61 60 58 56 54 55 56 56 58 57 55 55 54 55 57 55 54 52 48 46 46 45 44 43 43 42 42 43 43 43 44 44 44 44 45 46 48 48 46 45 44 44 46 49 50 50 50 49 50 51 51 51 50 50 49 48 47 45 44 43 44 45 45 45 46 46 47 47 48
80 81 79 77 75 73 70 68 68 68 68 69 70 71 71 70 68 66 64 62 59 57 55 55 56 58 58 57 56 55 56 57 56 55 52 49 48 48 47 46 46 45 44 44 44 45 46 47 47 47 47 47 47 48 49 49 47 45 46 48 51 52 52 51 51 51 52 52 52 53 53 53 52 50 48 47 46 46 47 48 48 48 48 49 49 50
82 81 78 77 77 75 72 67 66 67 67 66 68 70 72 73 72 70 67 64 61 58 57 57 56 58 60 59 58 57 56 57 56 55 52 50 51 51 50 49 49 48 47 46 46 47 49 50 51 51 49 49 49 50 51 51 49 47 48 51 53 54 54 54 53 53 53 54 54 55 55 55 55 53 51 50 49 49 49 50 51 51 51 51 52 53
82 81 78 77 77 77 74 69 65 67 67 66 67 68 71 72 72 71 69 66 64 61 60 60 58 59 61 62 61 60 59 58 58 56 53 53 54 54 52 51 51 50 49 49 49 49 51 52 53 52 51 51 52 52 52 53 51 49 51 53 55 56 57 56 56 56 55 55 55 56 56 57 57 56 54 53 52 52 52 53 53 54 54 54 55 56
81 81 79 78 78 78 77 73 71 72 72 71 69 69 70 72 72 72 71 69 67 65 64 62 60 59 61 64 63 63 63 61 59 58 56 56 56 56 55 52 51 51 51 51 51 51 52 53 54 54 55 54 54 54 53 53 52 52 53 55 57 58 58 58 58 58 57 57 57 57 57 58 58 58 57 56 55 54 54 55 56 56 56 57 57 58
82 82 81 80 80 79 79 79 79 78 77 76 74 74 73 73 73 72 72 71 70 69 67 65 64 60 60 66 67 65 65 64 61 60 59 58 58 58 57 55 53 52 52 52 53 53 54 56 57 58 58 57 56 56 56 55 55 55 56 58 59 60 60 60 60 59 59 58 58 58 58 59 59 59 59 58 58 57 56 57 58 58 59 60 60 61
83 82 81 81 80 80 82 82 82 82 81 80 79 78 77 76 75 74 73 72 71 69 67 66 65 61 60 67 69 67 67 66 63 61 60 59 59 59 59 58 56 55 54 55 55 56 58 59 61 61 60 60 59 59 58 57 57 58 59 60 61 62 62 63 62 61 60 59 59 59 59 60 60 60 60 60 60 59 58 59 60 60 61 62 63 64
86 84 82 81 81 82 83 83 83 83 84 83 82 81 80 79 78 76 74 73 71 67 65 66 67 63 61 65 69 69 68 67 64 62 60 60 60 61 62 61 60 59 59 59 60 61 62 63 64 63 63 62 62 61 59 59 60 61 62 62 63 64 64 64 64 63 62 61 60 60 60 61 62 62 62 62 62 62 61 61 62 62 64 65 66 67
89 87 86 84 84 84 84 84 85 85 85 85 85 84 84 83 81 78 76 74 71 68 67 68 69 66 61 63 69 70 69 68 65 63 62 62 63 64 64 65 64 64 64 64 65 65 65 65 65 64 64 64 63 62 62 62 62 63 64 64 65 66 66 66 65 64 63 62 62 62 62 63 64 64 64 64 65 64 64 64 64 65 67 68 69 70
90 89 89 88 87 86 86 86 86 86 86 86 86 87 87 86 83 81 78 77 74 71 71 71 70 67 62 64 68 71 71 71 69 67 66 66 66 66 67 68 68 68 68 69 68 68 67 66 66 65 65 65 65 64 64 64 65 65 65 66 67 68 68 67 66 65 64 63 63 63 64 65 65 66 66 67 67 67 66 66 67 68 69 70 71 72
92 91 89 89 89 89 88 88 87 87 87 88 88 88 88 87 85 83 81 79 78 75 74 73 72 69 66 67 70 73 75 76 75 74 72 71 70 70 70 71 71 71 71 71 70 69 69 68 68 67 67 67 66 67 67 67 67 67 68 69 70 70 70 69 67 66 65 64 64 64 65 65 66 67 68 69 69 69 69 69 70 71 71 72 73 75
93 91 90 89 89 89 89 89 89 90 90 90 90 89 88 87 86 84 83 82 80 79 77 75 74 71 69 71 73 75 77 78 80 80 78 76 75 74 73 73 72 72 72 72 72 71 71 71 70 69 69 69 69 69 69 69 69 69 70 71 72 72 71 70 69 67 66 65 64 64 65 66 67 68 69 69 70 71 71 72 72 73 74 75 76 77
91 91 90 90 90 91 91 91 92 92 92 91 90 89 88 87 86 85 84 83 82 81 79 77 75 73 72 73 75 76 77 79 81 83 83 81 79 78 76 75 74 74 74 74 74 73 73 73 72 72 71 71 71 70 70 70 70 71 72 74 74 74 72 72 71 70 69 68 67 66 66 67 67 68 69 70 71 72 73 74 74 75 76 77 78 78
91 91 91 92 92 92 92 93 93 93 93 92 91 90 89 89 88 88 86 85 84 83 81 79 77 76 76 75 76 77 78 79 81 83 84 83 82 80 78 77 77 76 76 75 75 75 75 75 75 74 74 73 73 72 72 72 73 74 75 75 76 75 75 74 74 73 72 70 70 69 69 69 69 70 71 72 73 74 74 75 76 77 78 79 79 81
95 95 95 95 95 95 95 95 95 94 94 93 91 90 91 91 91 90 88 87 85 83 81 80 79 78 78 78 78 79 80 81 82 82 83 83 82 82 81 80 79 79 78 77 76 76 75 76 76 75 75 75 75 75 75 75 76 76 76 77 77 77 77 76 75 74 73 72 72 72 71 71 71 72 72 73 74 74 75 77 78 79 80 81 82 83
99 99 99 99 99 99 100 99 98 97 96 94 93 93 93 93 92 90 89 87 86 85 83 81 81 80 80 80 80 80 81 81 81 81 81 81 81 82 82 82 81 81 80 79 78 77 77 77 76 76 76 76 77 77 77 78 78 78 78 78 79 79 78 77 75 75 74 74 74 74 74 73 73 73 74 74 75 76 77 79 80 81 82 83 84 85
100 100 101 101 101 102 102 102 100 98 97 96 95 95 94 93 92 92 92 90 89 88 86 84 83 82 81 81 82 81 81 81 80 80 80 80 81 82 83 83 82 82 82 81 80 79 79 78 78 78 78 78 78 78 79 80 81 80 80 79 80 80 79 78 77 76 75 75 76 76 76 76 76 76 76 76 77 78 80 81 82 83 84 86 87 88
104 103 103 102 103 103 102 101 99 97 97 97 97 96 96 95 95 94 95 94 92 91 89 86 84 82 82 82 82 82 81 80 80 79 80 80 81 82 82 83 82 82 82 82 82 82 82 82 81 81 81 81 82 82 82 83 83 82 82 81 81 81 80 79 78 78 78 78 78 78 78 78 78 78 78 79 80 81 82 84 85 86 87 88 90 91
105 105 105 105 104 103 102 101 100 99 100 100 99 98 97 97 98 97 96 95 93 91 90 88 84 82 82 82 81 81 81 80 80 80 80 81 82 82 83 83 83 83 84 84 85 85 85 85 86 86 85 85 86 86 86 86 85 85 84 84 83 82 81 80 80 80 80 80 80 80 80 80 80 81 81 82 82 83 85 86 87 89 90 91 93 95
105 105 106 106 105 104 104 104 103 103 104 103 103 101 100 100 99 98 96 94 93 93 92 90 86 82 81 80 80 80 80 81 82 82 82 83 83 84 84 84 84 85 86 86 87 87 88 88 88 88 87 87 88 88 88 88 87 87 87 86 85 83 83 82 82 82 81 82 82 82 82 82 83 83 84 85 86 87 88 90 91 92 93 94 96 98
107 108 108 108 107 107 107 107 106 106 106 105 104 102 101 100 99 99 98 97 96 95 93 92 89 84 81 80 81 82 83 84 84 85 85 85 86 86 86 86 87 87 87 88 89 89 89 89 89 88 88 88 89 89 88 88 89 89 89 88 87 86 85 85 84 84 84 84 84 85 85 85 85 86 86 88 89 91 92 94 95 97 98 99 100 101
108 109 109 110 109 109 109 109 107 106 104 102 100 99 98 99 99 100 99 99 98 95 94 95 91 86 81 80 82 85 86 87 87 88 88 89 89 90 90 90 90 89 89 89 89 90 90 90 89 89 88 88 88 88 88 89 91 91 91 90 89 88 88 87 86 86 86 86 86 87 87 88 88 89 89 90 92 93 95 97 99 100 102 102 103 103
108 109 110 110 110 109 108 106 103 101 99 99 97 97 97 98 99 99 99 101 100 96 96 96 92 87 84 83 85 87 89 90 90 90 91 91 92 92 92 91 91 90 90 90 90 90 90 90 89 89 88 89 89 90 90 91 92 93 93 92 91 90 89 88 88 87 87 87 88 89 90 90 91 92 93 94 95 97 99 100 101 102 103 104 105 105
107 107 107 107 106 105 103 102 101 101 101 102 102 101 102 103 103 104 105 105 101 99 98 97 93 90 89 89 90 90 91 91 91 91 92 92 92 92 91 91 91 91 91 92 92 92 92 92 91 91 91 91 92 92 93 93 94 94 94 94 93 91 90 90 90 90 90 90 91 91 92 93 94 95 97 99 100 102 103 104 105 105 106 106 106 107
106 105 103 103 102 101 100 101 102 102 103 104 104 104 105 106 107 108 107 104 101 101 99 95 93 92 90 91 91 90 90 91 91 91 91 91 92 92 92 92 92 93 94 95 96 95 95 96 96 96 95 95 95 95 95 95 94 94 94 94 93 92 92 92 92 92 92 93 93 94 95 96 98 99 101 102 104 105 106 106 107 107 108 108 109 109
106 105 103 102 101 100 101 102 102 102 103 103 104 104 104 105 106 106 104 100 99 100 96 92 92 92 91 92 92 90 92 93 91 92 93 93 94 94 94 95 96 97 98 98 99 98 98 98 98 99 98 98 97 97 96 96 95 95 94 94 94 94 94 94 94 94 95 95 96 98 99 100 102 103 105 106 106 107 108 108 109 110 111 112 113 114
108 107 105 104 103 102 103 103 103 103 104 104 105 105 105 105 105 104 102 99 99 99 96 95 95 93 92 93 93 93 94 94 93 94 95 96 97 97 98 99 99 99 100 99 98 99 99 99 99 100 100 99 99 98 97 97 97 96 96 95 95 95 96 96 97 97 98 99 101 102 103 105 106 107 108 108 109 110 110 111 112 113 115 116 117 117
109 107 107 107 106 105 105 105 105 104 105 105 105 105 105 105 103 101 99 98 99 99 97 96 96 92 90 93 93 93 95 95 95 96 97 98 99 99 99 99 99 99 99 99 98 99 99 100 100 101 101 100 100 100 99 99 98 98 98 98 98 98 99 99 100 101 102 104 105 106 107 108 108 109 110 110 111 112 113 114 116 117 118 119 119 119
108 107 107 108 108 107 107 107 107 107 107 108 107 105 104 102 101 99 99 99 100 99 98 99 98 93 91 94 96 97 97 98 98 99 99 100 100 100 99 99 98 98 99 99 100 100 101 101 101 102 102 102 102 101 101 101 101 101 101 101 102 102 103 103 104 105 106 107 108 108 109 109 109 110 111 112 113 115 116 117 118 119 120 120 121 121
107 106 106 107 108 107 107 108 109 110 111 110 106 102 100 100 101 101 101 101 101 101 101 101 99 96 95 97 98 99 100 100 100 101 101 101 101 101 101 101 101 101 101 101 101 102 103 103 103 103 103 103 103 103 103 103 104 105 105 105 106 106 106 107 107 107 108 109 109 110 110 111 112 113 114 115 117 118 119 119 120 121 121 121 121 122
106 105 105 106 107 106 106 107 109 112 112 107 102 99 101 103 104 104 104 103 103 104 105 104 101 100 99 99 99 101 102 103 103 103 103 103 103 103 103 103 103 103 104 104 103 104 104 104 105 105 105 106 106 106 106 107 107 108 108 108 108 109 109 109 109 109 110 111 112 113 114 115 116 117 118 119 120 121 121 122 122 122 122 122 122 121
106 106 106 107 107 107 107 108 111 112 108 103 100 101 103 105 106 106 106 105 106 106 106 105 102 101 101 102 102 104 105 105 105 105 105 104 104 104 105 105 106 106 106 106 106 106 106 107 107 108 108 108 108 108 109 109 109 109 110 110 111 111 111 111 112 113 114 115 116 117 118 119 120 121 121 122 123 123 123 123 123 123 123 122 121 120
108 108 109 109 109 110 110 110 112 110 106 103 102 102 103 105 106 107 107 107 107 107 107 106 104 103 104 105 105 106 106 107 107 107 106 107 107 107 108 108 109 109 109 109 110 109 109 109 109 109 110 110 110 110 110 111 111 112 113 113 114 115 116 116 117 118 119 120 121 122 123 123 123 123 123 124 124 124 124 123 123 122 122 120 119 117
109 110 110 111 112 112 112 112 112 112 108 105 103 102 102 104 106 108 109 108 107 107 107 106 105 105 107 108 109 109 110 110 110 109 110 110 111 112 112 112 112 112 112 112 112 112 112 112 111 111 112 112 112 112 113 113 114 115 116 118 119 120 121 121 122 122 123 124 124 125 125 125 124 124 124 124 123 123 123 122 121 120 119 117 114 113
112 112 112 112 113 113 114 114 115 114 110 105 102 102 104 107 109 112 113 111 108 107 107 108 108 109 111 112 113 113 114 113 113 112 114 114 115 115 115 115 115 114 114 114 114 113 113 113 114 114 114 115 116 116 117 117 119 120 121 122 123 124 124 125 125 125 125 125 126 126 126 126 125 125 124 123 122 121 120 118 116 115 113 111 108 106
116 115 115 115 116 115 116 116 116 115 110 104 103 105 108 110 112 115 117 113 108 107 109 111 112 113 114 115 116 116 117 116 115 115 117 117 117 117 117 117 117 116 115 115 115 115 116 116 117 118 119 120 121 121 122 122 123 124 124 125 126 126 126 126 126 126 126 126 126 126 126 126 125 124 123 121 119 116 114 112 109 108 106 104 103 101
121 120 120 120 120 119 119 119 119 116 111 106 105 107 109 112 115 118 118 113 109 109 112 115 117 117 117 118 118 118 118 117 117 118 119 119 118 119 118 118 118 117 117 118 118 119 120 121 122 123 123 124 125 125 125 125 125 125 126 126 126 126 125 125 125 125 125 125 125 125 125 124 122 120 118 116 113 110 108 106 105 103 102 100 100 99
123 124 124 124 124 124 124 124 123 121 116 111 109 110 112 115 118 118 117 113 111 112 115 117 119 120 120 119 119 119 119 119 119 119 120 120 120 120 120 120 120 121 121 122 122 123 124 124 125 125 125 125 126 125 125 125 125 125 125 125 125 124 124 124 124 124 123 123 123 122 121 119 118 115 113 111 109 106 104 103 102 100 99 99 99 99
123 124 125 126 126 127 127 128 128 126 121 117 115 115 117 120 121 120 118 117 117 118 118 119 121 121 122 122 122 122 122 122 122 123 123 124 124 124 124 124 124 124 125 125 125 125 125 125 126 126 126 126 126 126 126 125 125 125 125 126 125 125 124 124 123 123 122 121 120 119 117 116 114 112 110 108 106 103 101 100 100 100 100 100 101 102
123 124 125 126 126 127 128 129 130 129 124 120 120 121 123 124 124 124 123 122 123 123 122 123 124 124 125 125 125 126 126 126 126 127 127 127 127 127 127 127 127 127 127 126 126 126 126 126 126 127 127 127 127 127 127 126 126 126 126 126 125 125 123 122 121 120 119 118 116 115 113 111 109 108 106 105 103 102 101 101 101 102 104 105 106 107
126 126 126 126 126 127 128 129 129 127 124 122 122 124 126 127 127 127 127 126 125 125 125 125 125 126 126 126 127 127 127 126 126 126 126 127 127 127 128 128 128 128 128 128 128 128 127 127 127 127 127 127 127 127 127 126 126 125 125 125 124 123 121 119 118 116 114 113 111 110 108 106 105 104 103 103 103 103 103 104 106 107 109 111 112 113
127 126 126 126 127 128 129 129 129 127 126 125 124 124 126 127 127 127 127 126 126 126 126 125 125 126 126 127 127 128 128 128 127 127 127 128 128 128 128 128 129 129 129 129 128 128 128 127 126 126 126 126 126 126 126 125 124 124 123 123 121 119 116 114 112 110 109 108 107 106 105 104 104 103 104 105 106 107 109 110 112 113 115 116 118 119
126 126 127 128 129 130 130 130 129 128 127 126 125 125 125 126 126 127 127 126 126 126 126 125 125 125 126 127 127 127 127 128 128 128 128 128 128 128 128 128 128 128 128 128 128 127 127 126 126 125 125 125 125 125 124 124 123 121 120 119 117 114 112 109 108 107 106 106 105 105 106 106 106 107 108 110 112 114 115 116 117 118 119 121 122 123
124 125 125 127 129 130 130 129 128 126 126 126 125 125 125 125 126 126 126 127 127 126 126 126 126 126 126 126 126 126 126 126 126 126 126 126 126 126 127 127 127 127 127 127 126 126 126 125 125 125 124 124 124 123 122 121 120 118 117 115 114 112 110 108 107 106 106 106 107 108 109 110 110 111 113 115 117 119 120 121 122 123 123 124 125 125
122 123 124 125 127 127 127 126 125 124 125 125 124 124 125 125 125 126 126 127 127 127 127 126 126 125 125 124 124 123 122 122 122 122 122 122 122 123 123 123 124 124 124 124 124 124 124 124 123 123 122 121 121 120 119 118 118 117 116 115 114 113 111 110 109 108 108 109 110 111 113 115 116 117 118 119 121 122 123 124 125 125 125 126 126 126
121 121 122 123 124 124 124 123 122 122 122 123 124 124 125 125 125 125 126 126 126 126 126 125 124 124 123 123 122 121 120 120 119 119 119 119 119 120 120 120 120 121 121 121 122 122 122 121 120 120 119 119 118 118 118 118 118 118 118 117 116 115 114 112 112 112 113 114 115 116 118 119 121 122 122 123 123 124 124 125 126 126 126 127 127 127
120 120 120 121 122 121 120 120 121 122 123 124 124 125 125 125 125 124 124 124 124 124 124 124 123 123 122 122 122 122 121 121 120 120 120 120 120 120 120 120 120 121 121 122 122 122 122 121 120 120 119 119 119 119 118 118 119 119 119 119 118 117 117 116 116 117 118 119 120 121 122 122 123 124 124 125 125 125 125 126 127 127 127 127 127 126
118 118 118 120 120 120 120 120 121 122 123 123 123 124 124 124 124 124 124 124 124 123 124 123 123 123 122 122 122 122 121 122 122 122 122 122 122 122 122 123 123 124 124 124 124 124 123 123 122 121 120 120 120 119 119 119 120 121 121 121 121 121 121 121 121 121 122 123 123 124 124 124 124 125 126 127 128 128 127 127 127 127 127 127 125 124
Wind_Direction
233 235 235 234 235 236 237 238 239 242 245 246 247 248 251 253 255 256 257 255 254 254 257 260 264 266 268 271 274 276 277 277 279 281 283 284 285 290 292 294 296 295 294 295 297 299 301 303 307 310 313 315 315 315 315 314 315 317 320 323 324 323 323 322 322 322 320 319 319 319 320 321 322 323 326 329 329 329 328 329 329 328 328 327 327 326
233 233 234 233 233 235 237 238 239 242 245 247 249 249 250 251 253 255 257 259 258 257 258 260 264 267 268 271 273 275 276 277 279 280 281 281 283 288 290 292 293 292 292 292 294 296 299 302 305 307 309 311 311 312 313 312 310 311 315 319 320 320 320 320 319 318 318 317 317 317 317 318 319 320 322 325 327 327 327 327 327 326 326 326 326 325
232 231 232 234 236 238 241 242 242 243 243 245 246 247 248 249 251 253 256 258 260 260 260 262 265 268 269 270 272 274 275 277 279 279 280 280 281 285 287 288 290 290 289 289 290 294 298 301 303 304 305 307 308 309 311 310 306 307 311 316 317 317 317 317 316 316 315 315 315 314 315 315 316 318 318 321 323 324 325 325 325 325 325 324 324 324
231 231 231 233 235 237 240 242 243 244 243 243 244 246 248 249 251 252 254 256 258 260 261 263 265 268 269 270 271 273 275 277 278 278 279 279 280 282 283 283 286 288 288 287 288 291 295 297 299 300 302 303 304 307 308 307 304 304 307 312 314 314 315 314 313 313 313 312 313 312 312 313 313 315 316 317 318 320 321 323 323 323 323 322 322 321
232 232 233 234 235 235 236 239 243 244 243 243 244 246 248 250 251 252 253 255 257 258 260 263 265 267 269 270 271 272 274 276 277 278 278 277 277 279 280 281 284 286 287 285 285 288 291 293 294 296 299 299 301 304 305 305 303 302 304 308 311 312 313 312 311 311 310 310 310 310 310 310 311 312 314 315 315 316 318 319 319 320 320 320 319 319
232 234 236 237 237 236 235 237 241 241 241 243 245 247 248 249 251 252 253 254 255 257 259 261 263 266 268 269 271 271 273 275 276 276 276 275 276 277 279 281 283 284 285 284 283 285 288 290 292 294 295 297 299 301 303 304 303 301 302 306 308 309 311 310 309 309 308 308 308 307 307 308 309 310 312 313 312 312 314 315 316 316 317 317 316 316
233 234 236 237 237 236 235 236 238 238 241 245 248 248 249 249 250 251 252 253 255 257 258 260 262 265 268 269 270 271 271 272 274 275 275 274 275 277 278 279 282 283 284 284 284 285 286 289 291 292 293 295 296 298 300 301 301 299 301 304 306 308 309 310 309 308 307 306 305 304 304 305 306 308 310 311 310 309 310 312 313 313 314 314 314 314
232 233 234 236 237 236 236 236 236 237 240 244 247 248 248 249 250 251 252 254 255 257 259 260 261 263 266 268 268 269 270 271 272 273 274 274 275 276 277 278 280 282 283 284 284 284 286 288 289 290 291 293 294 295 297 298 298 297 298 301 304 307 308 308 308 307 306 304 303 302 302 302 304 305 307 307 307 307 307 308 309 310 310 310 311 311
229 231 232 234 236 236 237 237 237 238 240 242 245 247 248 249 250 251 253 254 256 257 258 260 260 261 264 266 267 267 269 269 270 271 272 272 273 275 277 278 279 280 281 282 283 284 286 287 289 289 290 290 291 293 294 295 296 296 297 300 303 306 307 307 307 306 305 303 302 300 300 300 301 302 303 303 303 304 304 304 305 306 307 307 308 309
230 231 233 235 236 238 239 239 240 241 242 244 246 248 249 250 251 252 253 254 255 256 257 258 258 258 261 265 266 267 267 268 268 269 269 270 271 273 276 278 279 280 280 281 283 284 286 287 288 288 288 289 290 292 293 294 295 296 297 299 302 304 306 306 306 305 303 302 300 299 298 297 297 298 298 299 299 301 301 301 302 303 304 304 305 307
235 235 236 238 239 240 241 242 242 243 244 245 247 249 250 250 251 251 252 253 254 255 256 257 257 257 259 264 266 266 266 267 267 267 267 268 270 272 275 277 279 280 281 282 283 284 285 286 286 287 287 288 290 291 292 293 294 295 296 298 301 303 304 304 304 303 302 300 298 297 295 294 294 295 295 295 297 298 298 298 299 300 301 302 303 305
237 238 238 239 240 241 242 243 243 244 245 246 247 248 249 250 251 251 252 253 254 254 255 255 256 257 258 261 264 265 266 266 266 266 266 267 269 272 275 277 279 280 281 282 282 283 283 284 285 286 287 288 289 290 291 292 293 294 295 297 299 301 302 302 301 300 299 298 297 295 293 292 292 293 293 293 294 295 295 296 297 298 299 300 302 304
237 238 238 239 240 241 242 243 244 245 246 246 247 248 249 249 250 251 252 254 254 254 254 255 257 258 258 259 262 265 266 266 266 266 267 268 271 273 275 277 278 279 280 281 281 282 282 283 284 285 286 287 288 289 290 291 291 292 293 295 297 299 299 299 298 298 297 296 295 293 292 291 291 291 292 292 292 293 294 295 295 296 297 299 301 303
236 237 237 238 240 241 242 243 244 244 245 245 246 246 247 249 250 251 253 254 255 255 255 256 257 258 257 258 260 263 265 266 267 268 268 270 272 273 275 276 277 278 279 279 280 281 281 282 283 285 285 286 287 288 288 289 290 290 291 293 295 296 297 297 296 296 295 294 293 292 291 290 290 290 290 290 291 292 294 294 295 295 296 298 300 301
236 237 237 238 239 240 241 241 242 243 244 245 246 247 248 250 251 252 253 254 255 256 256 256 256 256 255 256 258 261 264 267 268 269 270 271 272 273 274 274 275 276 277 278 279 280 281 282 283 284 284 285 286 286 287 287 288 289 290 292 294 295 296 296 295 295 294 294 293 292 290 289 289 288 289 289 291 292 293 294 294 294 296 297 298 300
236 237 238 238 239 240 240 241 241 242 243 244 246 247 249 250 251 252 253 253 254 255 255 255 256 255 255 255 258 260 263 266 268 271 272 272 273 273 273 273 273 274 275 277 278 279 280 281 282 283 283 284 284 285 285 285 286 287 289 291 293 294 295 295 296 296 295 295 294 292 290 289 289 289 289 290 290 291 292 292 293 293 294 296 297 298
234 235 236 237 238 239 240 241 242 243 244 245 246 248 249 250 251 252 253 254 255 255 256 256 256 255 255 256 258 260 262 265 267 270 272 274 274 274 273 272 273 273 274 275 276 277 279 280 281 282 282 282 282 283 283 284 285 287 289 290 292 293 294 296 296 296 296 295 293 292 291 290 290 289 289 289 290 290 290 291 291 292 293 294 295 297
233 234 235 235 236 238 239 240 241 242 244 245 246 247 249 250 251 253 253 254 254 255 255 255 255 255 256 257 258 260 262 264 267 269 271 273 274 274 274 273 273 274 274 275 275 276 277 278 279 280 280 281 281 282 283 284 285 286 288 290 291 293 294 295 296 295 294 292 291 290 290 289 288 287 287 287 288 288 288 289 289 290 291 292 294 295
235 235 236 237 238 238 239 240 242 243 244 246 247 248 249 250 251 252 253 253 253 253 253 253 254 255 257 258 259 260 262 264 266 268 269 271 272 273 274 274 275 275 275 275 275 275 275 276 277 277 278 280 281 282 283 284 285 286 288 289 291 293 293 294 293 292 291 290 289 288 287 287 286 286 286 286 286 287 287 287 288 289 290 291 293 294
236 237 237 238 239 240 241 242 243 245 246 247 247 248 249 249 250 251 251 252 252 253 253 253 254 256 257 259 260 261 262 263 265 266 268 269 271 272 273 274 275 275 275 276 276 276 276 276 277 277 278 279 280 281 282 283 284 286 287 289 290 292 292 291 291 290 289 288 287 287 286 286 286 286 286 286 286 287 287 287 288 289 290 291 292 293
236 237 238 239 240 241 242 243 244 245 245 246 246 247 247 248 249 250 251 252 252 253 254 254 255 256 258 259 260 261 262 263 264 266 267 268 269 270 271 272 273 274 275 276 277 278 278 279 279 280 280 281 281 281 282 283 284 286 287 288 289 289 289 289 289 288 288 287 287 286 286 286 286 286 286 286 286 287 287 287 288 289 290 292 293 294
236 237 238 239 240 241 242 242 242 242 243 244 245 245 247 248 249 250 251 253 254 254 255 255 256 256 258 259 260 261 263 263 264 264 265 266 267 268 269 270 271 272 274 275 277 278 279 280 281 281 282 282 283 284 284 285 285 286 287 288 288 288 288 288 288 288 287 287 287 286 286 286 286 286 286 286 286 287 287 288 289 290 291 292 293 295
234 235 236 237 238 239 240 241 241 242 243 244 245 246 247 249 250 252 253 253 254 255 255 256 256 256 257 259 259 260 261 262 263 263 264 264 265 266 267 268 270 271 273 275 276 277 278 279 280 281 282 283 284 285 285 286 286 287 288 288 288 288 288 288 288 287 287 287 287 287 286 286 286 286 286 287 287 288 288 289 290 291 293 293 294 295
235 235 236 237 237 238 239 240 241 242 244 245 246 248 249 250 252 253 253 254 254 255 256 257 257 257 257 257 258 259 260 261 262 263 264 265 266 267 267 268 269 270 272 273 275 276 277 277 278 280 281 282 283 284 284 285 286 287 287 288 288 288 288 288 288 288 287 287 287 287 287 287 287 287 287 288 288 289 290 291 292 293 294 295 295 296
236 236 237 237 238 239 240 241 243 244 246 247 248 249 250 251 252 252 253 254 254 254 256 257 257 256 254 254 255 258 260 262 263 265 265 266 267 267 268 268 268 269 270 271 272 273 274 275 277 278 280 281 281 282 283 284 285 286 286 287 287 287 288 288 288 287 287 287 287 287 287 287 287 287 288 288 289 290 291 292 293 294 295 295 296 296
236 237 238 238 239 240 242 243 244 246 247 247 247 248 248 249 249 250 250 251 251 252 253 255 256 255 254 255 257 260 262 263 264 264 265 265 266 266 267 267 268 268 269 270 270 271 272 274 275 277 278 279 280 280 281 282 283 284 285 285 286 286 286 286 286 286 286 286 286 286 286 287 287 288 288 289 289 290 291 292 293 293 294 294 295 295
237 238 239 240 241 242 243 244 244 244 245 246 246 246 247 247 248 249 250 252 253 254 256 258 259 259 259 260 261 262 262 262 262 262 263 264 265 266 266 267 268 269 269 270 271 272 273 274 275 276 276 277 277 278 279 281 282 283 284 284 285 285 285 285 285 285 285 285 285 285 286 286 287 288 289 289 290 291 292 292 293 293 293 294 294 294
237 238 240 241 242 242 242 243 243 244 245 247 248 248 249 250 251 252 254 256 257 258 260 261 261 260 261 261 261 261 261 260 261 261 262 263 264 265 266 267 268 269 270 271 272 273 274 275 276 276 276 276 277 277 278 279 280 281 282 282 283 283 283 283 283 284 284 285 285 285 286 287 287 288 289 290 290 291 291 292 292 292 292 292 293 293
237 238 239 240 241 241 242 242 243 244 245 246 247 248 250 251 252 253 255 256 257 258 259 259 258 259 260 260 260 260 261 261 261 262 262 263 263 264 265 266 268 269 271 273 274 275 275 275 275 276 276 277 277 278 278 279 279 279 280 280 281 281 281 282 282 283 283 284 284 285 285 286 287 287 288 289 289 289 290 290 290 291 291 292 292 293
238 238 239 240 241 241 242 243 244 244 245 246 247 248 250 251 252 254 256 257 258 259 259 259 259 260 261 261 261 261 261 261 261 262 262 262 263 264 265 267 268 270 271 272 273 274 274 275 275 276 276 277 277 278 278 278 279 279 279 279 279 280 280 280 281 281 282 283 283 284 285 286 286 287 287 288 288 289 289 290 290 291 291 292 292 292
239 239 240 241 241 242 243 244 245 245 246 247 248 249 250 252 253 255 257 258 258 259 259 259 259 259 260 261 260 260 260 261 261 261 262 263 264 266 267 268 269 269 270 271 271 271 272 273 274 275 276 276 277 278 278 278 278 279 279 279 279 279 279 279 280 280 281 282 283 284 284 285 286 286 287 287 288 288 289 289 290 290 291 291 292 292
240 241 241 242 242 243 243 245 245 246 246 246 247 249 251 253 254 255 256 256 257 257 257 257 258 258 258 259 259 260 261 262 263 264 265 266 267 268 268 268 269 269 269 269 270 270 270 271 272 274 275 276 276 277 277 277 278 278 278 278 278 279 279 279 280 280 281 282 283 283 284 284 285 285 286 286 287 288 288 289 289 290 290 290 291 291
242 243 243 244 244 244 244 245 246 246 247 247 248 250 252 253 254 254 254 254 255 256 257 257 258 258 258 258 260 262 263 263 264 265 266 267 268 268 268 268 268 268 268 268 269 270 271 271 272 273 274 275 275 275 276 276 277 277 278 278 278 279 279 279 280 280 281 282 282 283 283 283 284 284 285 286 286 287 287 288 288 289 289 289 289 289
242 243 244 244 245 245 245 245 246 246 247 248 249 250 251 251 252 253 253 254 255 256 257 258 259 259 259 260 260 261 262 263 264 265 266 267 267 268 268 268 268 268 269 269 269 270 271 272 272 273 273 274 274 275 275 276 276 277 277 278 278 279 279 279 280 280 281 281 282 282 283 283 284 285 285 286 286 287 287 287 287 288 288 288 288 288
241 242 243 244 245 245 245 245 246 247 248 248 248 249 250 251 252 253 253 254 255 256 258 258 259 259 260 260 260 261 262 263 264 265 266 266 267 267 267 268 268 269 269 270 270 271 271 272 272 273 274 274 275 275 275 276 276 276 277 277 278 278 279 279 279 280 280 281 282 282 283 283 284 285 285 285 286 286 286 286 286 287 287 287 287 287
241 242 242 243 244 245 245 246 247 248 248 248 248 249 250 252 253 254 254 255 255 256 257 258 259 259 259 260 260 261 262 262 263 264 265 265 266 266 267 267 268 269 270 270 271 272 272 272 273 273 274 274 275 275 275 276 276 277 277 277 278 278 279 279 280 280 281 282 282 283 283 284 284 284 285 285 285 286 286 286 287 287 287 286 286 286
241 242 242 243 244 245 246 246 248 248 248 248 249 250 251 252 253 254 254 254 255 256 257 258 259 259 259 260 260 261 261 262 262 263 264 265 265 266 267 268 269 270 270 271 272 272 273 273 273 273 274 274 274 275 275 276 276 277 278 278 279 279 280 280 281 282 282 283 283 284 284 284 284 285 285 286 286 286 287 287 287 286 286 286 286 285
241 242 243 244 244 245 246 246 247 248 248 249 249 250 251 252 253 254 255 255 256 257 258 259 259 259 259 260 260 261 262 262 263 264 264 265 266 267 268 268 269 270 271 271 272 272 273 273 274 274 275 275 275 276 276 277 277 278 278 279 279 280 281 281 282 282 282 283 283 284 284 285 285 286 286 286 287 287 287 287 286 286 286 286 285 285
242 243 243 244 245 245 246 247 247 248 249 248 248 249 250 251 252 254 255 255 256 257 258 259 259 259 259 260 260 261 262 263 264 265 265 266 267 268 268 269 270 270 271 271 272 272 273 274 274 275 275 276 276 277 277 277 278 278 279 279 279 280 280 281 281 282 283 283 284 284 285 286 286 287 287 287 287 287 286 286 285 285 284 284 284 284
243 243 244 245 246 246 247 248 248 249 248 248 247 248 249 250 251 252 254 255 256 256 256 258 258 258 258 259 260 262 263 264 264 265 266 267 267 268 268 269 270 270 271 272 272 273 273 274 275 275 276 276 277 277 278 278 279 279 280 280 280 281 281 282 283 283 284 285 285 286 286 286 287 287 287 286 286 285 285 284 284 283 283 284 284 285
244 244 245 245 246 247 248 249 249 249 249 248 248 248 249 251 252 253 254 255 255 254 255 256 257 258 258 259 260 262 263 264 264 265 266 267 267 268 269 269 270 271 271 272 272 273 274 274 275 276 276 277 277 278 279 279 280 280 281 281 282 282 283 283 284 284 285 285 285 285 286 286 285 285 285 285 284 284 283 283 283 283 283 283 284 285
244 245 246 246 247 248 249 249 250 250 250 250 250 250 251 252 253 254 255 255 254 254 255 256 257 259 260 260 261 262 262 263 264 264 265 266 267 268 268 269 270 270 271 272 272 273 274 275 275 276 277 277 278 279 279 280 280 281 281 281 282 282 283 283 283 284 284 284 284 284 284 284 284 284 284 283 283 283 282 282 282 282 282 282 283 283
245 246 246 247 247 248 249 250 251 251 251 251 252 252 252 253 254 254 255 256 256 257 257 257 258 259 261 262 263 263 264 264 264 265 266 266 267 267 268 269 270 270 271 272 272 273 274 275 276 276 277 278 278 279 279 279 280 280 280 281 281 282 282 282 283 283 283 283 284 284 284 283 283 283 283 282 282 281 281 281 281 281 281 281 281 281
246 247 248 248 249 250 250 251 252 252 252 252 252 252 253 253 254 255 256 256 257 258 259 259 260 260 261 262 263 263 264 265 266 266 267 268 268 269 270 270 271 272 272 273 273 274 275 275 276 277 277 277 278 278 278 279 279 279 280 280 281 281 282 282 283 283 283 283 283 283 283 282 282 281 281 281 280 280 280 280 280 280 280 280 280 280
248 249 250 251 251 251 252 252 252 253 253 253 253 254 255 255 256 256 257 258 258 259 260 261 262 262 263 264 264 265 266 266 267 268 269 270 271 271 272 272 273 273 273 274 274 275 275 276 276 276 277 277 277 278 278 278 279 279 280 280 281 281 282 282 283 283 282 282 282 281 281 281 280 280 280 279 279 279 279 279 279 279 280 280 280 280
248 249 250 251 252 252 253 253 254 255 256 256 256 257 257 258 258 259 259 260 260 261 261 262 263 264 265 266 266 267 268 269 269 270 270 271 271 272 272 273 273 273 274 274 274 275 275 275 276 276 276 277 277 277 278 278 279 279 279 280 280 281 281 281 281 281 280 280 280 280 280 279 279 279 279 279 280 280 280 280 280 280 280 280 280 280
249 249 250 251 252 253 254 255 256 257 257 258 259 259 259 260 260 261 261 261 262 262 263 263 264 265 265 266 267 268 268 269 269 270 270 271 271 271 272 272 273 273 274 274 274 275 275 275 276 276 276 276 277 277 278 279 279 279 279 280 280 280 280 280 279 279 279 279 279 279 279 280 280 280 280 280 280 280 280 280 280 280 281 281 281 281
249 250 250 251 252 253 254 255 256 257 258 258 259 259 260 260 260 261 261 261 262 263 263 264 264 265 265 266 267 267 268 268 269 269 270 270 271 271 272 272 273 273 274 274 275 275 275 276 276 276 277 277 278 278 279 279 280 280 280 280 280 280 280 280 279 279 279 279 280 280 280 280 280 280 280 280 280 280 281 281 281 282 282 283 283 283
250 251 252 252 253 254 254 255 256 256 257 257 258 258 258 259 259 260 260 261 261 262 263 263 263 264 264 265 265 266 266 267 268 268 269 269 270 271 271 272 273 273 274 274 275 275 275 276 276 276 277 277 277 278 278 279 280 280 280 280 280 280 280 280 281 281 281 281 280 280 280 280 280 280 280 281 281 282 282 283 284 284 285 285 285 286
250 251 252 253 254 254 255 256 256 256 256 256 257 257 257 258 258 259 260 260 261 261 262 262 263 263 264 264 265 265 266 266 266 267 267 267 268 269 269 270 271 271 272 272 273 273 274 274 274 275 275 276 276 277 278 279 279 280 280 280 280 280 280 280 280 280 280 280 280 280 280 281 281 282 283 283 284 284 285 286 286 287 287 287 287 287
251 252 252 252 253 253 253 253 254 255 255 256 256 257 258 258 259 259 259 260 260 260 261 262 262 263 263 264 264 265 265 266 266 266 267 267 268 268 269 269 270 271 271 271 272 272 272 273 274 274 275 275 276 277 277 278 278 279 279 279 279 280 280 279 279 279 279 280 280 281 282 282 283 284 284 285 286 286 286 287 287 288 288 288 288 288
Height
10749 10754 10760 10763 10763 10763 10764 10768 10773 10777 10780 10784 10787 10790 10791 10793 10795 10797 10800 10801 10803 10805 10807 10808 10809 10810 10812 10813 10814 10815 10814 10814 10816 10818 10819 10819 10820 10819 10819 10821 10822 10822 10823 10823 10822 10824 10824 10824 10824 10823 10823 10822 10822 10822 10821 10820 10819 10818 10817 10815 10813 10812 10811 10811 10810 10809 10809 10807 10806 10805 10804 10802 10801 10799 10798 10796 10794 10793 10791 10789 10788 10786 10784 10781 10779 10777
10745 10751 10754 10753 10753 10757 10763 10768 10773 10774 10776 10779 10782 10784 10786 10788 10790 10793 10795 10797 10799 10801 10803 10805 10805 10805 10807 10810 10810 10810 10809 10808 10812 10814 10814 10816 10817 10817 10816 10817 10818 10819 10819 10819 10819 10819 10820 10820 10821 10820 10819 10819 10819 10819 10818 10818 10817 10816 10815 10814 10812 10810 10809 10808 10807 10806 10805 10804 10803 10802 10801 10799 10798 10797 10795 10794 10792 10790 10788 10787 10785 10783 10781 10779 10777 10774
10742 10746 10744 10744 10750 10756 10762 10765 10768 10769 10771 10774 10777 10778 10780 10782 10785 10788 10791 10792 10795 10798 10799 10801 10802 10800 10802 10806 10806 10806 10805 10803 10807 10808 10810 10813 10813 10814 10813 10812 10813 10814 10816 10816 10815 10815 10816 10816 10817 10816 10816 10815 10814 10814 10815 10815 10814 10813 10813 10811 10809 10808 10807 10805 10804 10803 10802 10801 10800 10799 10797 10796 10795 10794 10792 10791 10789 10786 10785 10783 10782 10780 10778 10775 10773 10771
10735 10734 10733 10740 10748 10752 10756 10759 10762 10764 10765 10768 10770 10773 10775 10777 10780 10784 10786 10788 10791 10793 10795 10797 10798 10795 10797 10801 10802 10803 10801 10799 10801 10803 10805 10809 10809 10809 10809 10808 10809 10810 10812 10812 10811 10812 10812 10812 10812 10812 10812 10812 10811 10810 10811 10811 10811 10810 10810 10808 10807 10805 10804 10803 10801 10800 10798 10797 10796 10794 10793 10792 10791 10790 10789 10787 10785 10783 10781 10780 10778 10776 10775 10772 10770 10768
10725 10724 10729 10738 10742 10746 10750 10753 10757 10759 10760 10762 10765 10768 10770 10772 10775 10778 10781 10784 10786 10789 10791 10792 10794 10792 10792 10796 10797 10798 10797 10794 10796 10798 10801 10805 10804 10804 10804 10804 10805 10806 10807 10808 10808 10808 10808 10808 10808 10808 10808 10807 10807 10806 10806 10806 10807 10807 10806 10805 10803 10802 10801 10800 10799 10797 10795 10793 10792 10790 10789 10788 10786 10786 10785 10783 10781 10779 10777 10776 10774 10773 10771 10769 10767 10765
10718 10722 10730 10735 10737 10742 10746 10748 10751 10753 10755 10757 10760 10763 10765 10766 10770 10772 10775 10779 10782 10785 10787 10787 10790 10788 10787 10789 10791 10792 10793 10791 10791 10794 10797 10799 10798 10799 10800 10800 10801 10802 10803 10804 10805 10805 10803 10803 10803 10803 10803 10803 10802 10802 10801 10801 10801 10802 10801 10800 10799 10798 10797 10796 10795 10794 10792 10790 10788 10786 10784 10782 10781 10780 10780 10778 10776 10774 10773 10771 10769 10768 10766 10764 10762 10760
10716 10721 10727 10729 10732 10736 10739 10742 10745 10747 10749 10752 10754 10756 10758 10761 10763 10767 10770 10774 10778 10781 10781 10782 10786 10785 10782 10783 10784 10785 10786 10788 10788 10790 10793 10793 10792 10793 10796 10797 10796 10796 10797 10799 10800 10800 10799 10798 10798 10798 10798 10798 10798 10798 10797 10796 10796 10797 10796 10795 10794 10794 10793 10792 10790 10789 10788 10786 10784 10782 10779 10777 10776 10774 10774 10773 10771 10769 10767 10765 10764 10762 10761 10759 10756 10754
10713 10716 10720 10722 10724 10729 10733 10735 10737 10739 10742 10744 10747 10749 10752 10755 10758 10762 10765 10769 10773 10775 10777 10778 10781 10782 10779 10776 10777 10778 10779 10783 10785 10787 10787 10787 10787 10787 10790 10793 10793 10792 10792 10793 10794 10795 10794 10794 10793 10793 10793 10793 10793 10793 10793 10792 10792 10792 10792 10791 10790 10789 10788 10787 10786 10784 10782 10781 10779 10777 10775 10772 10771 10769 10768 10767 10765 10763 10762 10759 10757 10756 10754 10752 10750 10748
10704 10707 10711 10714 10717 10722 10725 10727 10729 10732 10736 10739 10741 10743 10746 10750 10753 10757 10760 10764 10767 10770 10772 10773 10775 10779 10776 10768 10769 10773 10773 10777 10781 10782 10783 10783 10782 10782 10782 10786 10788 10788 10788 10787 10788 10789 10789 10788 10788 10788 10787 10788 10788 10788 10788 10788 10787 10787 10787 10786 10786 10785 10783 10782 10780 10779 10777 10775 10773 10772 10770 10767 10765 10764 10762 10760 10759 10758 10756 10753 10751 10749 10747 10745 10743 10742
10696 10701 10705 10709 10713 10716 10718 10721 10724 10728 10731 10734 10736 10738 10741 10745 10748 10751 10755 10758 10761 10764 10768 10767 10768 10774 10774 10764 10763 10768 10767 10770 10776 10777 10778 10778 10778 10777 10777 10778 10781 10782 10783 10783 10783 10783 10782 10782 10782 10782 10781 10782 10782 10782 10782 10782 10782 10781 10781 10780 10780 10779 10778 10776 10774 10773 10771 10769 10767 10766 10764 10761 10760 10759 10757 10754 10753 10752 10750 10747 10744 10743 10740 10738 10736 10735
10693 10697 10701 10705 10709 10711 10713 10716 10720 10723 10726 10729 10731 10733 10735 10737 10740 10744 10748 10750 10755 10760 10762 10760 10760 10767 10771 10763 10757 10760 10762 10764 10769 10772 10773 10773 10772 10772 10771 10772 10774 10776 10777 10777 10777 10777 10776 10776 10776 10776 10775 10776 10776 10777 10776 10776 10776 10775 10774 10774 10773 10773 10772 10770 10768 10766 10764 10763 10761 10759 10757 10755 10753 10752 10750 10748 10746 10745 10744 10741 10738 10736 10733 10731 10730 10728
10689 10692 10697 10700 10703 10705 10707 10710 10713 10716 10719 10722 10724 10725 10726 10729 10732 10736 10740 10744 10749 10754 10754 10752 10752 10760 10768 10762 10752 10753 10756 10757 10761 10765 10767 10768 10767 10767 10767 10767 10768 10769 10770 10770 10770 10771 10770 10770 10770 10770 10770 10770 10771 10771 10770 10770 10769 10769 10768 10768 10767 10767 10765 10763 10761 10760 10758 10756 10754 10752 10750 10748 10746 10745 10743 10741 10739 10737 10736 10734 10732 10730 10727 10725 10723 10721
10682 10685 10689 10692 10695 10698 10700 10703 10706 10710 10712 10714 10716 10716 10717 10720 10725 10729 10733 10736 10741 10746 10746 10745 10747 10755 10762 10757 10749 10748 10748 10749 10753 10757 10759 10761 10763 10763 10763 10762 10762 10762 10762 10762 10762 10763 10764 10764 10765 10765 10765 10765 10765 10765 10764 10764 10763 10762 10762 10761 10761 10761 10759 10757 10755 10753 10752 10750 10748 10746 10743 10741 10740 10738 10736 10733 10731 10730 10729 10727 10725 10723 10720 10718 10716 10715
10672 10676 10681 10685 10688 10691 10693 10696 10699 10701 10701 10702 10704 10705 10708 10712 10717 10722 10726 10729 10733 10738 10740 10740 10742 10749 10754 10751 10747 10744 10741 10740 10742 10746 10752 10756 10758 10759 10758 10757 10756 10755 10754 10754 10755 10756 10756 10757 10758 10759 10759 10759 10759 10758 10758 10757 10756 10755 10755 10754 10754 10754 10752 10750 10749 10747 10746 10744 10742 10740 10738 10735 10733 10731 10729 10726 10724 10723 10722 10720 10718 10715 10713 10711 10709 10708
10665 10670 10676 10679 10680 10682 10684 10686 10688 10688 10689 10691 10694 10697 10702 10706 10711 10716 10719 10722 10726 10730 10733 10734 10736 10741 10744 10743 10741 10739 10736 10734 10732 10735 10743 10749 10751 10752 10752 10752 10751 10749 10747 10747 10748 10749 10750 10750 10751 10751 10752 10752 10752 10751 10750 10750 10749 10748 10747 10746 10745 10745 10744 10742 10741 10739 10738 10737 10736 10734 10732 10729 10727 10725 10723 10721 10719 10717 10715 10713 10710 10708 10706 10704 10702 10700
10661 10665 10669 10670 10672 10673 10673 10675 10677 10678 10680 10685 10688 10692 10696 10700 10703 10707 10710 10714 10718 10721 10725 10727 10730 10733 10734 10735 10735 10734 10732 10729 10726 10727 10732 10738 10743 10745 10745 10745 10743 10742 10742 10742 10742 10743 10743 10743 10743 10744 10744 10744 10744 10744 10743 10742 10741 10740 10739 10738 10737 10736 10735 10734 10732 10731 10730 10728 10727 10725 10724 10722 10720 10719 10717 10715 10713 10711 10708 10706 10703 10700 10698 10696 10694 10692
10652 10655 10658 10659 10662 10663 10664 10667 10669 10671 10674 10678 10682 10687 10690 10692 10694 10697 10702 10707 10710 10714 10719 10722 10723 10724 10725 10728 10730 10728 10727 10724 10722 10721 10723 10727 10731 10734 10735 10735 10734 10735 10735 10737 10737 10737 10736 10736 10736 10736 10736 10736 10736 10736 10735 10734 10734 10733 10732 10730 10729 10728 10727 10726 10725 10723 10722 10720 10717 10716 10714 10713 10712 10710 10709 10707 10705 10703 10701 10697 10695 10693 10691 10689 10687 10685
10641 10643 10645 10647 10649 10651 10654 10656 10658 10662 10667 10671 10677 10681 10681 10682 10686 10689 10694 10699 10702 10706 10711 10713 10714 10715 10716 10720 10722 10721 10721 10719 10718 10717 10718 10719 10720 10721 10722 10723 10724 10726 10727 10729 10730 10731 10731 10730 10729 10728 10728 10728 10728 10727 10727 10727 10726 10725 10725 10724 10722 10721 10720 10719 10718 10716 10714 10711 10709 10707 10706 10705 10704 10702 10701 10699 10697 10696 10693 10690 10687 10686 10683 10681 10680 10678
10631 10633 10636 10638 10639 10642 10644 10646 10651 10656 10661 10667 10671 10672 10672 10675 10679 10681 10684 10689 10692 10696 10701 10704 10706 10707 10709 10711 10712 10714 10715 10714 10713 10713 10712 10713 10712 10710 10710 10711 10713 10714 10716 10718 10720 10722 10723 10722 10722 10722 10721 10721 10720 10720 10720 10718 10717 10717 10717 10717 10715 10714 10713 10712 10710 10708 10705 10703 10701 10699 10697 10696 10695 10694 10693 10692 10690 10688 10685 10682 10680 10679 10676 10674 10672 10670
10622 10623 10626 10630 10630 10632 10635 10640 10648 10655 10658 10660 10662 10663 10664 10667 10671 10671 10673 10678 10682 10685 10690 10695 10699 10701 10702 10702 10702 10705 10707 10708 10709 10708 10707 10707 10705 10703 10702 10702 10702 10703 10703 10705 10707 10710 10711 10712 10714 10714 10714 10714 10714 10713 10712 10710 10709 10709 10710 10710 10708 10706 10704 10702 10701 10698 10696 10695 10692 10690 10688 10687 10686 10685 10684 10683 10681 10679 10676 10673 10672 10670 10668 10665 10663 10660
10611 10612 10616 10620 10620 10623 10629 10637 10645 10648 10647 10647 10649 10652 10653 10656 10659 10661 10663 10668 10673 10677 10682 10688 10694 10696 10695 10694 10694 10696 10698 10700 10703 10703 10702 10701 10698 10696 10695 10694 10694 10693 10694 10694 10696 10697 10698 10700 10702 10703 10703 10704 10704 10704 10703 10702 10702 10701 10702 10702 10700 10698 10696 10693 10691 10689 10687 10685 10683 10681 10679 10678 10677 10676 10675 10674 10672 10670 10667 10664 10662 10661 10659 10656 10652 10649
10601 10603 10607 10609 10612 10617 10623 10628 10632 10631 10632 10635 10637 10641 10644 10647 10650 10653 10657 10663 10666 10671 10676 10681 10687 10689 10687 10687 10688 10688 10690 10692 10694 10694 10694 10693 10691 10689 10688 10687 10687 10686 10686 10687 10687 10688 10688 10689 10690 10690 10691 10692 10691 10691 10691 10691 10691 10690 10690 10691 10690 10689 10687 10684 10682 10679 10677 10675 10673 10671 10669 10668 10667 10666 10665 10664 10662 10660 10657 10654 10652 10650 10649 10646 10642 10639
10586 10589 10592 10596 10601 10606 10609 10613 10616 10617 10621 10625 10628 10634 10638 10641 10645 10648 10653 10658 10658 10660 10666 10671 10678 10683 10682 10681 10681 10680 10681 10682 10682 10683 10684 10683 10682 10682 10683 10683 10682 10681 10681 10680 10680 10679 10680 10680 10680 10680 10681 10681 10680 10679 10678 10678 10678 10677 10678 10677 10677 10677 10676 10674 10672 10669 10667 10665 10662 10661 10659 10658 10657 10656 10654 10652 10650 10648 10645 10643 10641 10639 10638 10636 10632 10628
10575 10577 10581 10585 10590 10594 10597 10601 10605 10608 10613 10619 10625 10631 10633 10637 10641 10641 10644 10648 10647 10652 10658 10661 10669 10678 10676 10672 10671 10671 10671 10672 10672 10672 10673 10673 10674 10675 10676 10677 10676 10677 10676 10675 10673 10672 10671 10671 10671 10672 10673 10672 10671 10670 10668 10667 10666 10665 10666 10665 10665 10665 10665 10663 10661 10659 10657 10655 10652 10650 10649 10648 10647 10645 10643 10641 10638 10635 10633 10631 10628 10626 10625 10623 10620 10616
10565 10566 10572 10576 10580 10584 10589 10594 10600 10607 10614 10620 10625 10628 10629 10632 10632 10630 10634 10635 10637 10646 10649 10650 10660 10668 10664 10661 10662 10662 10664 10664 10664 10664 10664 10664 10664 10665 10666 10667 10667 10669 10670 10669 10668 10666 10664 10664 10665 10665 10665 10664 10662 10661 10660 10658 10656 10654 10655 10654 10654 10654 10653 10653 10651 10649 10647 10644 10642 10639 10638 10636 10635 10634 10632 10630 10628 10625 10622 10619 10617 10614 10611 10609 10606 10603
10552 10555 10562 10567 10571 10579 10588 10595 10604 10608 10608 10610 10613 10615 10616 10616 10615 10617 10618 10617 10626 10637 10638 10641 10652 10655 10652 10654 10656 10657 10658 10657 10656 10655 10654 10653 10653 10654 10655 10656 10657 10659 10661 10661 10660 10659 10659 10659 10660 10659 10658 10657 10655 10653 10651 10649 10647 10645 10644 10645 10645 10644 10643 10642 10641 10639 10637 10635 10633 10631 10628 10626 10625 10623 10621 10619 10617 10615 10613 10610 10607 10605 10601 10598 10596 10592
10543 10548 10557 10562 10569 10581 10588 10591 10595 10594 10590 10592 10597 10600 10600 10600 10602 10603 10602 10609 10625 10631 10631 10641 10648 10646 10647 10649 10647 10648 10648 10646 10647 10646 10644 10644 10643 10644 10646 10647 10647 10649 10649 10649 10650 10651 10651 10652 10653 10653 10651 10650 10648 10646 10644 10642 10639 10636 10635 10635 10635 10635 10634 10632 10630 10628 10626 10625 10623 10621 10619 10616 10614 10613 10610 10607 10605 10603 10600 10598 10595 10593 10590 10587 10585 10582
10536 10543 10553 10559 10566 10575 10578 10577 10580 10581 10581 10584 10588 10590 10592 10594 10595 10595 10600 10615 10624 10622 10630 10643 10639 10636 10642 10639 10634 10637 10635 10632 10638 10639 10637 10636 10634 10634 10636 10636 10636 10637 10638 10639 10640 10642 10643 10642 10641 10641 10641 10640 10639 10638 10637 10635 10633 10630 10628 10626 10625 10624 10623 10621 10619 10618 10616 10614 10612 10610 10608 10605 10603 10601 10599 10596 10594 10591 10589 10586 10583 10581 10578 10575 10573 10570
10529 10538 10547 10551 10555 10563 10564 10564 10568 10572 10573 10575 10577 10581 10583 10584 10586 10590 10600 10612 10613 10612 10627 10634 10624 10626 10634 10625 10622 10627 10621 10620 10628 10629 10627 10626 10624 10625 10626 10626 10627 10627 10629 10631 10631 10631 10632 10630 10629 10628 10628 10629 10628 10628 10627 10626 10625 10623 10621 10619 10617 10615 10614 10611 10609 10608 10606 10604 10602 10600 10598 10595 10593 10591 10589 10586 10584 10581 10578 10576 10573 10570 10567 10564 10561 10558
10521 10531 10538 10541 10546 10552 10553 10554 10559 10563 10564 10566 10569 10572 10574 10575 10578 10585 10595 10605 10604 10605 10617 10619 10613 10621 10625 10614 10612 10613 10606 10608 10616 10615 10613 10613 10613 10616 10618 10619 10621 10621 10622 10623 10622 10620 10619 10618 10617 10615 10615 10616 10616 10617 10616 10615 10614 10613 10611 10610 10609 10607 10605 10603 10600 10598 10596 10594 10592 10590 10588 10585 10583 10580 10578 10575 10572 10570 10567 10564 10561 10558 10555 10552 10549 10546
10514 10523 10529 10533 10537 10541 10544 10547 10551 10554 10556 10559 10560 10562 10566 10570 10577 10585 10593 10597 10594 10596 10603 10602 10601 10613 10616 10603 10598 10596 10592 10596 10601 10600 10600 10601 10604 10607 10609 10610 10613 10613 10612 10612 10612 10611 10609 10608 10607 10605 10605 10605 10605 10605 10605 10603 10602 10601 10600 10599 10598 10597 10595 10594 10592 10589 10587 10584 10582 10581 10579 10576 10573 10570 10567 10564 10561 10558 10556 10552 10549 10546 10542 10539 10536 10533
10508 10515 10521 10524 10525 10531 10538 10539 10540 10544 10545 10545 10549 10558 10565 10570 10576 10581 10584 10582 10580 10583 10587 10584 10589 10604 10605 10590 10582 10582 10582 10585 10588 10589 10590 10592 10595 10597 10598 10600 10601 10600 10599 10599 10599 10599 10598 10598 10597 10596 10596 10596 10595 10594 10594 10592 10591 10589 10589 10588 10587 10586 10584 10583 10582 10580 10577 10575 10572 10571 10569 10567 10565 10562 10558 10555 10551 10548 10545 10541 10538 10534 10531 10528 10524 10521
10502 10507 10513 10514 10515 10523 10529 10528 10530 10530 10526 10532 10550 10562 10564 10565 10567 10567 10566 10568 10570 10571 10570 10572 10581 10591 10588 10579 10576 10574 10573 10575 10577 10578 10579 10581 10584 10585 10585 10586 10585 10586 10586 10586 10587 10587 10586 10586 10586 10586 10587 10586 10585 10584 10583 10582 10580 10577 10577 10576 10574 10574 10572 10571 10570 10568 10566 10564 10561 10560 10558 10556 10555 10552 10548 10545 10541 10538 10534 10530 10527 10523 10519 10516 10513 10509
10493 10499 10503 10503 10505 10512 10517 10518 10516 10511 10513 10535 10556 10558 10553 10552 10552 10550 10553 10558 10559 10557 10558 10564 10574 10577 10573 10572 10570 10564 10562 10563 10565 10566 10568 10569 10571 10571 10571 10571 10571 10572 10572 10572 10574 10576 10575 10575 10574 10574 10574 10574 10574 10574 10572 10571 10570 10567 10565 10565 10563 10562 10560 10559 10558 10556 10553 10551 10549 10547 10546 10544 10542 10540 10536 10533 10529 10526 10522 10518 10514 10510 10506 10504 10501 10497
10484 10488 10489 10492 10494 10497 10502 10504 10498 10497 10516 10539 10545 10540 10539 10540 10539 10539 10544 10549 10548 10548 10550 10555 10562 10564 10560 10558 10557 10553 10553 10554 10553 10555 10557 10557 10559 10559 10557 10557 10557 10558 10559 10559 10561 10562 10563 10563 10562 10562 10561 10561 10561 10561 10560 10559 10558 10556 10554 10553 10552 10550 10549 10548 10547 10543 10541 10539 10536 10534 10533 10531 10530 10527 10523 10519 10516 10512 10508 10504 10501 10497 10493 10491 10487 10484
10473 10475 10477 10480 10481 10483 10487 10489 10487 10496 10516 10527 10526 10530 10534 10531 10529 10531 10533 10537 10538 10538 10539 10543 10550 10551 10544 10542 10545 10544 10542 10542 10542 10544 10546 10545 10545 10544 10543 10544 10545 10545 10547 10547 10548 10548 10549 10549 10550 10550 10549 10548 10549 10548 10547 10546 10545 10544 10542 10540 10540 10538 10537 10536 10534 10531 10528 10526 10522 10520 10518 10517 10516 10513 10509 10505 10502 10498 10494 10490 10487 10483 10479 10478 10475 10470
10461 10463 10466 10468 10469 10471 10476 10479 10481 10487 10500 10511 10519 10527 10527 10521 10519 10517 10516 10522 10529 10529 10529 10535 10540 10537 10530 10528 10530 10530 10529 10530 10532 10535 10536 10533 10530 10531 10531 10532 10533 10534 10535 10535 10535 10535 10535 10535 10536 10536 10535 10535 10536 10536 10535 10533 10532 10530 10528 10526 10525 10524 10522 10521 10519 10516 10514 10511 10507 10504 10501 10499 10498 10497 10494 10490 10486 10483 10479 10475 10471 10467 10464 10462 10461 10457
10450 10453 10456 10456 10457 10461 10463 10466 10469 10471 10487 10509 10518 10518 10514 10508 10505 10502 10499 10509 10523 10523 10521 10524 10524 10521 10516 10513 10514 10515 10515 10517 10522 10524 10522 10519 10519 10520 10520 10521 10522 10523 10523 10523 10523 10522 10521 10521 10521 10521 10521 10520 10520 10521 10521 10520 10518 10517 10515 10513 10511 10509 10508 10506 10503 10501 10499 10496 10492 10488 10485 10482 10481 10479 10477 10474 10470 10467 10464 10460 10455 10452 10448 10446 10445 10443
10440 10442 10446 10444 10444 10449 10451 10453 10457 10463 10484 10506 10508 10502 10499 10495 10493 10488 10482 10498 10520 10519 10510 10509 10507 10504 10502 10498 10499 10502 10502 10506 10513 10511 10506 10507 10509 10509 10508 10509 10511 10511 10511 10511 10511 10510 10509 10508 10507 10506 10506 10505 10505 10505 10505 10504 10503 10501 10500 10498 10496 10495 10494 10491 10489 10487 10484 10481 10477 10473 10470 10467 10464 10461 10459 10457 10454 10451 10447 10444 10441 10437 10434 10431 10429 10428
10428 10431 10434 10432 10433 10439 10441 10442 10445 10454 10476 10493 10492 10489 10487 10481 10479 10473 10470 10493 10515 10507 10496 10495 10489 10485 10487 10486 10487 10491 10493 10496 10500 10496 10493 10496 10497 10496 10497 10498 10498 10498 10499 10498 10498 10496 10495 10494 10492 10491 10490 10490 10489 10489 10488 10488 10486 10484 10482 10480 10479 10478 10477 10475 10473 10470 10468 10465 10461 10457 10453 10450 10447 10445 10442 10439 10438 10436 10432 10428 10426 10424 10421 10418 10416 10414
10415 10417 10420 10421 10424 10428 10428 10429 10433 10443 10462 10477 10477 10476 10475 10467 10462 10463 10471 10489 10497 10486 10481 10481 10473 10471 10476 10477 10478 10482 10483 10484 10486 10484 10482 10483 10483 10484 10485 10484 10484 10484 10484 10484 10483 10482 10480 10479 10478 10476 10475 10474 10473 10472 10472 10471 10469 10467 10464 10462 10461 10460 10459 10458 10456 10454 10452 10449 10445 10441 10438 10434 10431 10429 10426 10423 10422 10421 10419 10414 10411 10410 10408 10406 10403 10401
10404 10406 10408 10409 10413 10416 10417 10418 10420 10427 10448 10463 10463 10462 10464 10456 10451 10459 10468 10471 10468 10467 10471 10470 10465 10464 10465 10465 10468 10470 10470 10471 10472 10471 10470 10470 10470 10471 10470 10469 10470 10470 10469 10469 10469 10468 10467 10465 10463 10461 10459 10458 10457 10457 10456 10455 10453 10450 10447 10445 10445 10444 10444 10443 10442 10440 10437 10434 10430 10427 10423 10419 10416 10413 10411 10409 10407 10407 10406 10402 10397 10396 10394 10392 10391 10389
10392 10392 10392 10395 10401 10404 10405 10406 10405 10415 10439 10453 10447 10445 10448 10443 10441 10449 10453 10449 10450 10455 10459 10458 10457 10456 10454 10454 10455 10454 10454 10456 10456 10456 10457 10456 10456 10456 10455 10455 10455 10454 10454 10455 10455 10454 10454 10452 10449 10447 10444 10443 10441 10441 10440 10439 10437 10435 10432 10430 10430 10430 10430 10429 10427 10425 10422 10419 10415 10412 10408 10405 10402 10398 10396 10394 10392 10391 10392 10389 10385 10383 10381 10378 10377 10375
10378 10378 10381 10388 10394 10393 10391 10394 10398 10408 10425 10432 10427 10428 10431 10429 10430 10436 10438 10438 10441 10443 10443 10444 10444 10442 10442 10443 10441 10438 10438 10439 10439 10440 10441 10439 10440 10440 10439 10439 10439 10438 10438 10438 10438 10439 10439 10437 10435 10432 10428 10426 10424 10423 10423 10423 10422 10420 10417 10414 10414 10414 10414 10414 10412 10409 10407 10403 10399 10396 10393 10391 10388 10385 10382 10380 10378 10377 10377 10374 10372 10369 10366 10363 10360 10359
10367 10372 10374 10375 10378 10376 10375 10380 10388 10394 10402 10409 10413 10417 10417 10416 10420 10424 10425 10426 10428 10428 10429 10430 10428 10426 10426 10426 10425 10425 10425 10424 10425 10425 10425 10424 10424 10423 10422 10422 10421 10420 10420 10420 10420 10421 10421 10420 10419 10416 10413 10409 10406 10405 10405 10405 10405 10405 10402 10399 10398 10399 10400 10399 10398 10395 10392 10388 10385 10382 10379 10378 10376 10372 10369 10366 10363 10362 10361 10359 10356 10354 10351 10347 10343 10341
10356 10361 10362 10359 10359 10361 10363 10368 10377 10383 10389 10396 10401 10404 10404 10405 10407 10409 10409 10409 10410 10412 10415 10414 10413 10413 10411 10409 10410 10411 10411 10410 10410 10409 10408 10408 10407 10406 10405 10404 10403 10402 10402 10402 10402 10402 10403 10403 10402 10400 10398 10394 10390 10388 10388 10387 10387 10389 10388 10385 10384 10384 10385 10386 10384 10382 10378 10375 10372 10368 10365 10364 10363 10360 10357 10352 10348 10345 10343 10341 10339 10338 10335 10330 10326 10323
10344 10349 10351 10348 10347 10349 10354 10361 10369 10375 10378 10382 10384 10387 10390 10391 10390 10391 10392 10392 10393 10395 10398 10398 10398 10399 10398 10397 10397 10397 10396 10396 10395 10392 10392 10391 10390 10389 10389 10388 10386 10386 10385 10384 10385 10385 10385 10385 10384 10383 10382 10379 10375 10372 10371 10370 10370 10370 10370 10370 10369 10369 10370 10370 10369 10368 10366 10361 10358 10355 10351 10348 10347 10346 10343 10338 10333 10329 10326 10323 10320 10318 10317 10313 10308 10304
10333 10335 10337 10338 10338 10340 10345 10354 10361 10365 10366 10369 10371 10373 10374 10373 10373 10374 10375 10375 10377 10379 10382 10383 10384 10384 10384 10384 10383 10382 10381 10380 10379 10378 10377 10375 10374 10374 10373 10372 10371 10370 10368 10368 10368 10368 10368 10368 10367 10366 10365 10363 10360 10357 10355 10354 10352 10351 10350 10351 10351 10352 10353 10353 10352 10351 10350 10346 10342 10339 10335 10332 10330 10328 10326 10323 10318 10313 10309 10305 10301 10298 10296 10291 10286 10284
10320 10322 10325 10327 10329 10332 10338 10345 10351 10354 10354 10354 10353 10353 10354 10355 10356 10358 10359 10360 10363 10364 10365 10366 10367 10368 10369 10368 10368 10368 10367 10366 10365 10364 10363 10361 10361 10360 10359 10358 10357 10355 10354 10353 10352 10351 10352 10352 10351 10351 10350 10348 10345 10343 10341 10338 10336 10333 10332 10332 10333 10334 10335 10335 10334 10333 10331 10328 10325 10322 10318 10315 10312 10309 10305 10303 10300 10296 10291 10287 10281 10278 10277 10272 10265 10262
10309 10313 10317 10318 10318 10322 10330 10334 10333 10333 10334 10334 10333 10334 10337 10340 10343 10344 10345 10346 10347 10348 10349 10350 10350 10351 10352 10353 10354 10354 10354 10353 10353 10352 10350 10349 10348 10347 10346 10346 10344 10342 10340 10339 10337 10336 10336 10336 10336 10337 10336 10333 10331 10329 10327 10324 10321 10318 10315 10314 10315 10317 10317 10317 10317 10316 10313 10309 10306 10303 10300 10297 10294 10289 10284 10281 10279 10276 10273 10269 10263 10257 10255 10253 10248 10243
10300 10303 10304 10304 10304 10309 10315 10316 10314 10314 10317 10320 10321 10322 10324 10326 10328 10329 10330 10331 10332 10333 10334 10334 10335 10335 10336 10337 10338 10339 10339 10339 10338 10337 10336 10335 10333 10333 10332 10331 10329 10328 10326 10324 10323 10323 10322 10321 10321 10320 10319 10318 10317 10315 10313 10311 10307 10303 10300 10299 10299 10300 10299 10298 10298 10298 10296 10292 10288 10284 10280 10277 10275 10271 10266 10261 10257 10254 10252 10252 10248 10241 10235 10231 10229 10227